Terminal Aerodrome Forecast
Issued by NWS Paducah, KY

Home | Current Version | Previous Version | Text Only | Print | Product List | Glossary Off
Versions: 1 2 3 4 5 6 7 8 9 10 11 12 13 14 15 16 17 18 19 20 21 22 23 24 25 26

000
FTUS43 KPAH 181727
TAFEVV
TAF
KEVV 181727Z 1818/1918 09005KT P6SM SCT050 BKN250
     FM190000 08006KT P6SM SCT040 BKN080
     FM190900 06010KT 4SM -SHRA BR OVC020
     FM191200 12006KT 2SM -SHRA BR OVC008=

USA.gov is the U.S. government's official web portal to all federal, state and local government web resources and services.